Theta_e
311 310 310 310 310 310 310 310 310 310 310 310 310 310 310 311 310 302 296 303 306 314 316 309 308 308 309 305 310 311 299 295 297 297 299 306 306 312 312 309 316 322 323 327 331
312 311 311 311 310 310 310 310 310 310 310 310 310 310 310 311 302 296 304 310 312 312 305 304 301 303 300 301 303 302 296 297 303 305 301 305 306 309 308 307 317 321 327 330 331
312 311 311 311 311 311 311 310 310 310 310 310 310 311 310 308 296 294 314 315 313 311 307 304 304 302 296 299 299 299 295 302 303 306 306 305 307 310 308 305 313 318 321 325 327
311 311 311 311 311 311 311 311 311 311 310 310 311 311 311 304 282 304 311 311 311 307 305 301 299 295 293 291 297 293 300 302 305 308 307 305 309 307 308 306 308 320 325 325 321
311 310 311 311 311 311 310 310 311 310 310 310 310 311 304 294 292 303 310 308 304 301 298 298 296 294 289 292 294 293 297 302 304 307 306 307 305 306 306 309 312 323 326 325 325
313 311 311 311 311 311 311 310 310 310 310 310 310 310 298 288 301 302 302 301 300 297 297 298 295 297 292 292 291 295 296 298 302 304 306 304 304 305 306 309 311 323 323 325 325
312 312 312 310 310 310 310 310 310 310 310 310 310 305 296 292 302 302 301 299 300 300 296 298 298 295 294 290 295 295 291 294 297 300 302 306 300 301 307 307 306 315 320 322 323
312 312 312 310 311 311 310 310 310 310 310 310 310 300 290 301 300 300 300 299 300 301 299 300 299 295 293 294 292 291 290 285 295 299 303 302 292 302 307 305 305 308 316 321 323
312 312 311 311 311 311 310 310 309 309 309 309 298 295 288 303 297 299 301 297 300 300 300 301 297 291 291 286 283 287 283 284 290 301 301 299 294 302 307 304 303 307 313 317 320
312 312 311 311 311 310 310 308 307 307 303 302 300 288 293 291 296 298 299 298 296 296 292 293 290 285 285 283 275 280 282 286 288 294 299 297 295 301 305 303 301 306 310 316 316
312 312 311 310 310 309 303 295 289 288 291 285 285 288 289 295 298 296 298 297 295 291 284 288 282 279 282 285 286 286 285 285 290 297 295 295 296 298 301 296 299 305 310 311 308
312 311 311 310 309 306 299 291 292 292 283 290 290 290 292 296 290 293 300 289 286 283 288 285 280 284 288 287 287 287 284 285 289 295 295 294 294 298 298 294 297 302 307 306 305
311 311 310 309 306 300 294 294 298 295 281 286 291 290 292 293 289 289 294 289 285 284 285 282 285 289 289 287 285 286 284 285 287 294 296 294 293 295 298 296 297 299 301 301 302
309 310 309 307 297 296 293 299 298 294 270 277 285 290 293 293 288 297 300 294 289 283 286 285 290 288 287 286 288 282 289 287 287 287 285 293 284 293 295 293 293 293 292 295 295
310 310 309 305 296 293 296 298 294 290 258 281 284 295 293 289 291 293 301 296 286 284 284 283 287 287 286 287 290 287 292 289 289 286 286 286 284 289 294 288 291 289 290 291 292
310 309 308 300 298 296 297 294 289 270 261 272 284 282 282 287 290 293 294 297 294 288 286 286 293 291 289 292 293 293 291 289 289 287 280 285 281 286 290 291 288 288 288 289 291
309 306 302 299 293 296 295 288 271 262 273 270 276 281 279 281 285 287 288 285 283 277 276 285 287 291 293 289 292 290 285 278 276 277 277 285 279 282 288 293 289 288 287 286 289
304 302 299 297 295 293 289 276 262 263 264 280 280 280 278 283 281 285 284 281 286 284 280 276 278 285 290 290 286 287 285 278 273 274 276 283 278 280 287 292 290 288 288 287 287
304 295 293 294 294 291 280 269 269 272 278 277 278 270 271 280 281 283 281 282 285 285 280 277 278 288 290 293 291 285 281 287 279 277 277 278 280 285 286 287 288 287 287 286 286
293 291 291 295 292 288 275 271 273 280 280 279 272 276 268 273 276 277 278 283 283 286 287 283 279 286 289 291 290 286 288 279 281 270 272 276 278 279 282 283 287 288 287 287 287
291 282 292 295 290 277 269 271 277 282 282 278 277 273 276 275 277 278 278 284 286 286 288 286 283 282 286 285 282 284 281 282 282 279 275 273 277 287 285 285 285 288 289 288 287
287 274 292 292 276 265 263 276 281 280 283 282 281 280 274 277 276 276 279 283 287 287 283 286 283 278 281 288 288 287 284 283 275 272 276 279 277 287 286 286 286 284 286 288 288
282 279 291 288 269 262 276 278 280 279 281 280 280 282 283 276 273 279 282 287 287 287 283 285 277 273 279 283 287 284 286 286 284 280 275 273 277 287 286 285 285 283 283 283 284
283 273 279 280 276 271 269 277 277 283 281 283 281 283 281 275 280 278 281 286 288 288 290 287 281 272 273 279 284 281 283 284 278 272 276 278 280 283 284 283 284 283 283 283 283
279 278 280 274 273 275 277 280 277 276 282 283 281 280 279 275 275 275 279 282 287 287 285 281 274 280 281 283 283 282 281 283 279 275 273 279 278 281 284 284 284 283 284 284 283
277 276 278 272 279 278 280 278 277 278 279 278 278 280 279 276 277 276 278 280 281 282 281 282 270 275 277 282 282 278 279 281 280 280 278 279 278 285 286 286 285 285 285 284 284
284 285 282 280 278 275 278 279 279 281 282 282 281 280 278 278 281 281 282 283 282 278 279 277 270 268 272 275 274 273 276 278 281 282 281 276 281 284 282 284 285 286 286 286 285
Wind_Speed
6 7 8 9 10 11 11 11 12 13 13 14 13 14 15 16 16 9 11 10 7 12 16 14 7 6 5 5 10 4 9 17 21 21 13 9 3 7 6 4 4 5 11 5 11
7 8 8 9 11 11 12 12 12 13 13 14 14 15 16 16 8 16 10 20 22 16 8 5 7 7 4 3 6 10 13 24 4 13 12 17 7 9 7 10 3 9 8 15 14
9 9 10 11 11 12 13 13 13 14 14 15 15 15 14 11 7 7 9 14 8 3 7 5 7 8 13 9 9 8 19 8 17 14 12 24 10 4 5 8 6 11 14 12 16
10 10 10 11 12 14 15 15 15 15 15 16 16 15 15 5 9 3 7 10 9 5 4 6 6 6 12 12 12 18 21 18 8 13 9 7 1 5 4 10 7 9 22 15 15
12 11 11 12 13 14 15 16 16 16 17 16 16 16 6 6 19 10 23 20 14 10 10 7 11 10 19 8 12 21 21 19 19 11 12 4 10 7 8 14 8 14 15 16 14
10 11 12 14 15 16 16 16 17 18 17 17 17 16 4 22 4 10 14 11 11 8 9 8 8 12 12 13 18 6 10 20 18 18 12 9 6 4 10 15 3 14 13 15 16
10 12 14 14 14 15 17 17 18 18 19 18 17 9 12 26 11 18 19 13 7 6 6 6 9 7 2 12 17 17 17 20 24 22 15 9 11 13 13 9 7 10 9 12 13
12 11 13 14 15 15 16 18 19 21 20 20 18 5 13 4 8 12 14 13 14 12 10 8 4 10 12 10 12 13 14 12 11 21 13 18 20 16 15 7 7 6 7 9 9
12 12 13 14 14 14 15 18 21 23 20 18 3 5 11 7 2 5 1 6 2 2 5 12 4 9 7 16 15 12 8 25 11 17 11 20 11 15 13 10 8 6 6 9 6
13 13 14 13 12 12 14 19 22 18 7 4 2 3 6 4 5 7 11 13 9 6 8 14 8 13 12 14 20 16 16 13 14 19 14 22 7 12 17 10 9 7 4 8 10
16 14 14 11 8 7 6 6 7 6 6 4 7 7 18 7 14 10 9 6 16 8 12 7 8 13 22 23 11 18 16 15 13 11 20 14 10 11 12 5 2 5 8 10 12
13 11 10 7 3 2 2 2 3 3 11 12 18 15 16 5 9 13 5 8 5 7 9 6 17 17 12 15 15 17 10 10 4 11 22 19 12 6 9 8 4 5 9 8 10
13 11 6 4 3 2 1 3 2 3 3 9 5 4 3 3 6 9 5 4 5 4 10 12 10 16 14 17 16 11 11 6 5 10 6 21 10 9 6 6 10 12 12 13 9
12 7 6 8 4 2 3 1 2 2 4 8 3 4 3 4 6 8 6 6 1 4 3 4 6 19 12 14 9 14 16 6 8 6 10 5 6 9 8 6 8 8 9 10 9
8 7 11 8 0 3 0 3 1 4 6 12 6 2 7 2 9 3 4 3 2 5 0 1 13 14 7 17 18 6 15 14 11 3 4 3 6 6 13 8 10 7 8 9 10
9 12 10 2 3 1 3 3 4 8 5 8 6 9 9 4 5 6 5 2 3 3 2 2 2 8 10 14 15 6 9 9 7 4 1 6 5 7 8 7 8 7 8 8 9
16 13 4 3 1 3 3 3 6 6 4 11 7 9 11 6 7 6 5 8 7 7 6 3 2 3 12 5 5 7 1 3 4 3 3 3 9 3 6 6 12 12 8 10 9
14 9 7 3 2 3 3 6 7 4 4 5 7 15 3 9 5 12 5 6 7 4 4 5 3 4 0 2 6 2 2 3 4 4 2 2 4 3 5 7 12 12 9 11 10
10 2 3 4 3 3 5 6 4 1 6 7 11 6 7 6 5 6 6 10 6 11 6 4 5 2 4 5 2 2 2 3 7 2 5 3 4 4 6 7 9 9 9 11 9
2 3 1 5 3 4 7 4 1 4 6 4 6 3 4 8 10 8 9 6 11 8 9 4 3 5 6 3 5 6 4 3 5 3 4 4 4 3 4 6 7 8 10 9 6
4 5 3 5 4 7 5 2 2 3 4 4 5 5 4 4 5 7 8 2 7 10 11 5 4 5 1 7 5 6 4 5 6 2 4 5 2 5 3 7 8 8 8 8 7
3 4 4 3 6 3 3 2 3 4 4 3 4 5 3 5 4 6 5 3 9 9 8 7 4 4 6 4 5 4 6 4 5 5 3 4 3 4 6 7 10 10 9 6 6
3 1 4 5 4 2 2 3 2 5 4 4 4 4 4 4 4 4 5 6 9 7 5 7 5 3 4 6 9 8 5 3 3 3 3 5 5 4 7 8 8 10 8 7 8
4 3 6 5 1 8 4 4 4 2 2 2 3 6 8 3 3 6 9 4 8 6 10 5 5 3 4 2 2 4 6 7 6 6 1 6 10 5 5 7 6 6 8 6 5
4 2 2 2 5 4 3 2 5 4 2 4 1 5 5 4 7 6 5 8 4 14 7 6 6 7 8 9 9 7 7 11 7 2 7 5 7 5 5 7 6 6 7 8 7
5 5 2 2 2 6 5 4 4 3 5 3 2 7 5 3 4 4 7 6 4 11 7 5 1 2 10 9 11 12 12 8 9 11 10 11 8 6 5 7 6 5 5 7 7
1 1 5 2 2 4 2 2 3 3 3 2 5 3 4 1 2 5 7 8 5 4 5 4 4 4 3 6 6 9 8 7 4 7 6 4 6 5 5 7 5 6 6 6 6
Wind_Direction
325 331 332 330 329 332 329 327 329 329 330 328 326 328 329 330 331 304 273 235 247 260 250 267 281 284 306 239 242 204 218 235 222 215 220 250 317 290 268 209 98 50 109 195 131
303 310 319 322 321 321 319 319 320 319 319 319 319 320 323 328 325 289 248 261 265 271 271 272 257 260 254 253 228 245 230 228 210 226 219 244 229 305 340 329 35 90 110 125 135
321 318 313 308 306 307 307 308 311 312 311 311 310 311 318 335 311 247 13 41 38 308 244 245 279 260 251 250 238 236 248 254 239 237 213 230 216 229 331 316 207 162 163 161 155
304 309 302 306 307 307 303 302 302 302 303 304 305 308 309 342 292 155 67 20 3 32 3 254 248 249 249 235 244 252 255 245 283 221 193 224 126 234 232 248 293 213 168 174 167
304 301 294 295 300 303 306 304 304 303 302 303 306 308 340 253 246 268 287 296 286 278 259 242 243 242 246 236 242 258 258 260 248 242 238 178 236 206 245 268 270 165 159 165 170
296 288 288 291 297 297 299 302 299 298 300 300 302 303 298 260 288 249 250 267 268 248 221 198 224 236 260 246 234 252 248 277 251 240 212 189 215 157 221 272 141 151 175 166 178
294 286 285 292 298 297 295 298 299 297 294 296 296 292 264 256 294 295 287 271 268 240 220 221 229 243 289 251 253 254 256 271 266 242 216 174 245 232 244 273 243 143 164 163 176
292 290 289 288 293 293 297 299 298 291 291 293 290 282 265 295 253 260 261 266 250 233 237 226 255 253 248 256 290 245 231 253 239 214 214 176 233 232 240 281 249 158 157 161 164
293 285 287 290 291 289 299 301 294 287 293 289 280 162 261 291 234 306 290 273 277 333 277 221 188 229 236 227 243 220 238 231 283 200 187 189 202 207 215 275 236 220 152 152 134
287 286 282 285 289 291 306 302 287 292 293 248 107 29 260 266 314 311 281 260 246 247 305 226 196 211 212 206 217 199 228 238 220 194 191 187 145 162 171 252 239 191 52 154 103
289 285 292 288 280 303 341 341 12 357 24 209 239 245 289 281 299 274 274 261 222 202 214 165 197 204 208 204 231 186 238 209 247 223 198 180 138 154 159 73 72 156 104 118 93
294 295 296 279 267 344 356 10 97 237 304 269 258 260 268 345 285 290 283 211 197 212 165 163 221 215 210 197 226 240 256 212 286 217 185 170 170 138 117 107 60 110 109 99 89
294 290 273 203 113 48 181 87 61 33 291 298 257 252 268 145 281 281 136 200 236 244 181 213 236 194 206 209 197 227 227 202 188 138 171 154 180 146 95 103 91 74 80 68 85
282 289 178 139 70 175 65 49 25 70 46 282 323 278 248 210 259 246 249 218 188 301 355 148 256 184 201 199 194 220 207 216 173 188 151 192 147 144 150 134 117 108 92 95 74
267 161 157 124 192 67 258 354 339 61 32 298 309 159 292 281 286 267 283 254 309 287 46 167 204 178 182 205 190 253 183 203 171 83 103 141 127 128 139 146 150 121 108 101 93
136 134 129 81 67 40 342 359 57 45 276 329 315 325 347 288 300 291 266 230 192 260 238 296 320 161 162 163 172 134 161 171 105 123 150 156 131 151 170 160 126 102 101 98 97
105 100 67 43 144 327 5 61 41 101 324 311 321 329 328 294 319 338 355 31 14 345 10 47 61 345 124 133 155 145 198 91 66 44 55 142 59 57 33 105 139 132 123 103 101
102 84 76 82 354 26 66 52 71 241 265 327 299 309 320 347 318 345 333 0 357 356 320 24 117 355 23 176 127 146 84 81 111 132 94 281 94 86 79 59 99 87 95 89 85
108 56 56 331 10 72 73 52 186 294 331 316 318 7 321 339 347 332 18 359 339 354 355 352 74 351 29 102 109 134 51 224 104 43 81 95 60 75 108 86 115 120 102 83 73
106 89 336 315 54 69 73 128 232 351 330 324 357 360 304 319 355 5 4 359 331 348 323 297 73 6 344 281 12 118 148 114 29 87 90 65 78 98 163 145 145 163 127 119 110
66 60 270 337 64 51 97 100 17 336 347 341 342 300 297 320 311 354 358 25 344 312 317 336 7 8 279 32 7 7 33 44 108 89 129 122 60 348 77 157 155 157 139 148 148
80 56 298 43 54 47 81 56 333 341 353 313 284 273 268 305 322 348 345 320 323 307 340 344 43 56 40 321 254 8 22 50 95 307 35 75 83 29 74 108 112 99 111 134 133
75 230 320 73 96 28 109 63 18 4 343 353 303 339 319 300 348 341 343 320 319 330 358 320 13 46 25 4 359 43 349 9 103 71 17 102 119 85 84 87 93 111 113 120 137
91 46 340 39 127 120 122 34 16 329 279 290 285 305 330 326 297 325 347 318 316 324 5 83 34 104 102 14 335 53 13 356 81 70 54 64 121 96 90 108 113 119 123 128 128
58 115 133 7 344 88 109 57 20 19 321 341 19 357 332 324 342 359 328 326 330 355 6 80 64 36 35 52 76 62 13 36 56 177 97 149 101 108 128 136 143 145 136 125 119
126 130 34 179 298 85 34 38 28 346 3 10 326 319 23 59 5 317 336 17 11 323 10 8 138 76 35 38 68 69 20 26 43 63 74 96 72 116 100 94 106 130 125 119 126
233 60 103 283 2 75 52 69 11 288 234 228 285 287 2 335 280 276 299 285 283 307 337 52 97 54 40 348 359 37 358 356 38 51 128 112 152 125 81 79 60 80 88 115 125